Wind_Speed
11 8 7 10 12 13 14 13 13 11 9 10 12 13 17 20 22 25 22 20 22 23 20 15 17 22 23 21 17 16 20 21 21 22 22 22 23 24 25 28 32 35 36 36 39 47 53 56 56 56 57 58 60 63 65 67 70 72 74 73 73 71 69 66 64 63 64 63 64 66 68 70 73 74 73 70 67 66 65 64 62 62 61 57 53 50
9 8 11 12 11 12 11 11 12 13 10 11 12 12 17 24 28 29 22 19 23 24 22 17 17 20 21 20 17 19 23 23 23 22 22 24 25 26 27 30 34 35 35 38 46 53 55 55 55 57 59 62 65 68 71 73 75 77 76 72 70 67 63 56 53 53 54 53 53 56 57 59 62 66 67 66 64 62 62 63 62 62 63 62 61 58
9 9 11 10 10 10 9 11 14 14 11 10 10 13 19 25 32 32 24 21 23 25 26 22 18 17 18 21 21 23 27 26 23 22 23 26 26 27 28 31 35 37 40 47 53 55 55 57 59 62 65 68 69 72 75 77 76 74 71 66 61 59 56 49 44 46 49 48 47 48 50 53 54 54 55 56 56 55 53 54 55 56 57 58 59 62
9 10 9 9 10 10 11 14 14 14 12 8 10 15 20 25 33 33 30 26 21 21 25 24 21 19 19 21 23 26 28 26 23 21 23 25 26 28 30 34 39 43 48 52 54 54 56 60 63 65 67 69 72 74 74 73 70 67 63 59 55 52 50 46 42 42 46 47 44 41 43 48 50 48 47 48 49 49 47 46 46 47 47 47 48 53
9 8 8 9 10 12 14 16 15 15 14 9 11 15 20 28 32 30 28 27 23 20 19 15 16 18 15 16 25 27 25 24 22 20 22 25 27 29 32 38 45 49 51 51 52 54 59 63 65 66 68 70 70 66 64 63 62 60 56 53 50 48 47 45 42 39 40 41 40 38 40 45 47 46 45 44 44 45 44 42 40 39 39 41 43 46
8 7 8 10 12 15 14 15 16 17 16 10 9 14 21 30 32 26 23 25 25 19 15 12 9 10 11 16 24 27 25 26 23 20 22 24 27 30 36 43 47 48 48 49 52 57 63 65 66 69 68 64 58 54 54 54 53 52 51 49 48 47 44 41 38 35 34 37 39 39 40 43 46 47 46 45 44 43 42 41 39 37 36 37 41 44
7 7 10 12 14 15 13 15 16 18 19 12 11 18 25 30 28 22 20 23 21 17 19 18 9 10 15 19 26 29 27 26 23 20 21 24 27 33 40 44 46 45 46 50 56 61 63 65 68 69 63 55 50 50 51 50 48 48 48 47 46 45 43 40 38 34 33 36 39 38 39 42 45 47 47 46 43 42 42 40 39 39 37 35 37 40
7 8 10 13 15 15 16 18 17 19 21 17 19 24 29 30 24 19 20 21 19 21 22 13 9 14 18 20 27 28 23 20 21 19 19 23 28 35 40 43 45 46 49 54 58 61 62 66 68 63 56 52 49 47 47 46 46 47 47 46 45 44 43 41 39 37 36 37 39 40 41 43 44 44 45 46 44 42 43 41 38 37 37 37 36 36
9 8 9 14 16 17 20 20 18 20 20 22 23 26 32 30 20 17 19 19 17 19 14 4 13 14 16 26 26 20 17 14 14 15 18 26 32 37 41 44 46 48 51 54 56 60 65 68 63 53 49 50 47 45 45 45 46 47 46 44 43 44 43 43 43 43 41 40 39 40 41 41 41 41 43 45 44 42 42 40 37 35 36 37 37 35
11 10 9 13 17 20 22 19 18 19 20 24 24 28 34 26 18 19 17 16 14 11 7 10 23 14 15 29 21 9 9 8 10 18 25 31 34 38 42 44 46 47 49 54 58 63 63 59 53 47 45 44 44 44 44 45 45 44 42 43 45 46 44 44 46 48 47 44 41 40 39 39 41 43 43 44 43 40 39 39 36 33 33 36 37 34
16 13 11 13 15 19 23 21 19 17 18 22 23 31 36 26 18 14 11 13 10 7 6 15 27 20 12 15 9 7 11 14 23 32 33 35 37 39 40 41 43 46 52 59 62 62 56 50 48 46 44 43 44 44 45 47 45 42 42 45 47 46 45 46 48 51 49 44 40 39 40 42 43 44 44 43 41 38 36 36 35 33 32 34 35 32
18 15 13 13 13 18 24 23 19 17 16 17 22 30 33 28 20 7 7 12 5 4 11 20 32 26 10 7 12 18 23 30 39 39 35 35 34 33 34 40 48 54 60 62 58 55 52 49 48 46 46 46 46 45 46 46 46 47 49 48 48 45 43 43 45 46 44 40 37 38 41 43 44 44 42 40 37 34 32 33 34 33 32 32 32 30
17 15 14 14 15 17 24 25 19 17 15 13 20 28 24 18 14 6 5 8 5 8 15 24 32 21 12 16 20 25 34 41 41 33 28 28 29 33 40 49 57 57 58 57 53 52 51 49 47 46 47 47 47 46 46 46 48 52 54 52 49 45 40 40 41 41 41 40 40 40 40 41 41 39 38 36 34 31 30 32 33 32 32 32 31 30
15 12 12 14 14 17 26 26 19 19 17 11 18 24 16 8 6 5 5 4 7 17 25 30 25 14 15 20 23 33 42 38 30 25 25 30 37 46 52 57 57 54 52 52 53 56 54 50 47 46 47 49 48 47 47 47 49 54 56 54 49 43 41 43 44 42 41 41 40 38 35 34 35 35 35 36 35 33 31 31 31 31 31 31 31 30
11 8 10 14 14 16 26 23 17 18 12 9 16 18 13 8 4 3 4 4 8 20 30 27 14 8 15 21 30 38 34 24 23 27 34 41 48 53 57 57 53 52 53 52 54 58 55 51 47 46 49 50 50 48 47 47 50 55 57 54 48 45 45 45 41 37 37 38 39 38 36 33 33 34 34 34 34 34 32 30 31 32 32 32 32 32
11 9 12 17 15 17 25 20 15 16 8 8 16 15 15 14 10 11 13 14 16 18 19 17 13 15 21 30 35 28 21 25 31 36 41 45 51 56 56 53 51 53 56 54 55 57 52 49 47 46 49 50 49 49 49 50 53 58 58 54 49 49 48 46 40 36 37 40 42 45 46 43 40 37 35 32 32 33 32 30 32 35 36 35 36 36
11 13 15 16 14 17 23 17 13 12 8 12 14 14 19 15 12 15 16 18 17 11 11 15 19 23 28 32 25 16 23 36 35 37 44 49 54 56 53 53 55 55 54 53 55 54 50 48 47 46 48 49 49 50 52 54 57 58 57 54 52 50 50 50 50 45 42 45 48 51 50 46 44 42 39 37 35 34 32 31 34 36 37 36 35 35
14 15 13 12 13 20 23 16 14 10 9 15 14 16 20 12 7 10 9 11 10 6 11 19 21 23 25 21 18 24 34 33 32 40 50 53 54 54 54 56 56 54 52 53 54 53 51 50 47 46 47 47 49 52 55 57 57 56 55 54 53 51 51 55 57 53 46 44 46 46 42 37 36 38 38 40 39 36 32 32 34 36 37 36 33 32
15 15 12 9 13 23 21 14 14 12 13 18 18 19 18 9 7 10 7 6 6 4 8 20 25 24 21 19 24 34 32 28 37 49 53 53 51 51 54 57 56 55 53 54 55 54 51 49 47 45 46 48 51 55 57 57 56 55 55 54 53 53 55 57 57 53 46 41 38 36 34 31 30 31 33 36 38 36 34 31 33 38 39 36 32 31
13 10 10 11 15 21 18 13 13 15 19 20 17 18 16 9 7 13 13 9 7 5 6 17 22 15 17 28 33 30 26 31 44 51 52 51 49 52 56 57 56 55 55 57 57 55 51 48 46 46 48 52 55 56 56 55 54 54 55 55 55 56 58 57 54 50 44 37 32 32 32 31 30 30 32 33 35 37 37 35 37 41 40 36 32 31
15 9 12 18 20 18 14 14 18 22 21 17 15 16 17 14 11 14 16 13 8 3 4 10 13 17 28 34 28 24 31 41 47 50 51 49 51 57 58 56 55 54 57 59 56 54 51 47 46 48 53 56 56 56 55 54 54 56 56 56 57 59 60 58 53 47 42 35 31 30 32 33 32 32 33 33 33 35 36 35 37 39 37 33 31 30
16 14 16 23 24 20 17 18 21 22 19 17 17 17 16 14 12 11 7 10 8 6 10 10 12 30 41 29 21 30 39 46 49 49 48 49 56 60 57 56 56 56 58 58 55 53 50 48 49 53 57 57 56 56 55 55 55 57 57 57 59 60 60 56 50 44 39 35 32 31 32 34 34 33 33 31 31 32 32 32 32 32 30 27 27 28
18 17 17 22 23 19 18 18 18 17 17 20 19 16 15 13 13 10 5 12 15 15 21 18 15 33 42 30 30 41 44 48 51 46 45 53 60 59 57 58 57 57 58 57 55 52 49 51 54 57 59 58 56 56 56 56 57 57 58 59 61 62 60 55 49 43 38 34 33 32 31 32 32 31 29 28 28 29 30 29 28 26 25 24 23 24
16 14 18 25 23 18 16 15 15 14 15 21 22 20 19 18 19 19 16 20 19 16 21 15 13 30 43 41 42 45 46 51 49 43 48 57 60 58 58 59 57 58 58 55 53 51 52 55 57 58 60 57 57 57 57 57 57 57 59 61 62 63 60 54 48 43 38 34 33 32 30 30 29 27 25 25 25 25 25 25 23 21 19 19 18 20
14 11 17 21 18 16 15 14 17 21 22 25 27 26 26 24 24 25 23 21 16 16 20 11 14 37 52 51 50 48 50 51 45 45 55 58 56 56 58 58 58 59 58 54 53 54 56 58 59 60 59 57 57 58 57 57 58 58 60 62 63 63 60 55 48 42 37 34 33 31 29 27 25 24 22 21 21 22 22 22 19 16 15 16 17 18
16 14 14 12 7 8 11 13 21 29 28 27 29 30 29 27 27 26 22 16 14 22 27 20 25 47 59 58 55 54 52 49 46 53 59 56 54 56 57 58 59 59 55 53 54 57 60 61 61 61 59 58 58 58 58 58 59 61 62 63 64 62 58 53 47 41 35 32 32 31 27 24 23 22 21 19 19 20 20 18 17 16 17 18 18 19
18 17 15 13 12 14 19 25 28 26 26 28 29 30 30 29 29 26 19 17 22 29 33 33 35 48 58 59 58 56 51 46 51 59 59 56 55 56 56 57 57 54 52 53 57 60 61 61 62 61 59 59 59 58 58 59 60 62 64 65 64 60 56 50 45 40 34 31 30 29 25 22 21 20 20 18 18 19 17 15 16 18 19 19 19 20
20 21 19 16 18 20 27 32 27 21 24 29 28 29 30 29 30 25 19 23 28 24 29 41 44 45 55 60 57 53 47 48 57 60 57 57 57 55 55 55 53 51 52 56 59 60 60 60 60 60 59 59 59 58 59 60 61 63 65 66 63 58 52 47 42 38 34 30 29 27 23 20 18 18 18 18 18 18 18 18 20 21 21 22 22 22
21 23 21 19 21 25 29 29 23 21 26 29 28 29 29 29 30 25 21 27 29 22 30 46 48 47 55 57 51 48 48 54 60 58 55 56 56 55 54 53 51 52 54 57 58 59 60 60 59 59 59 59 59 60 60 60 61 63 65 65 61 55 49 43 38 35 32 30 28 25 22 19 17 17 17 17 17 18 19 21 24 24 24 23 23 22
21 22 21 21 27 31 30 24 20 24 29 31 32 30 29 29 28 23 23 29 29 28 37 45 47 50 53 48 45 48 52 57 59 56 54 56 55 54 53 52 52 55 56 58 58 58 59 60 60 60 60 60 60 60 61 61 62 64 65 63 58 53 46 40 35 32 30 29 27 24 21 18 17 16 16 16 17 17 18 20 23 25 24 22 22 22
21 22 23 24 31 34 28 21 22 28 31 33 29 24 24 25 23 20 23 28 31 38 45 46 47 50 47 42 44 51 55 59 58 55 56 57 55 53 52 53 54 55 56 57 57 57 59 60 61 61 61 61 61 61 61 62 64 65 65 62 56 50 43 37 33 30 29 27 25 23 20 18 17 17 17 17 17 18 18 17 19 21 21 20 21 21
22 23 25 26 28 32 29 24 28 34 33 30 23 18 19 21 22 22 23 27 33 42 48 46 45 46 44 44 49 54 58 60 58 56 56 55 52 50 51 52 53 54 56 57 57 58 59 61 62 63 63 62 62 62 62 62 63 65 64 60 54 48 41 36 33 30 28 26 24 21 19 17 16 16 16 17 18 18 17 14 14 16 18 17 18 19
23 23 26 25 24 30 31 28 32 33 24 18 18 20 21 21 23 25 26 31 40 45 44 42 44 45 45 48 54 60 62 59 56 55 53 51 48 48 49 51 52 54 56 58 59 60 60 62 63 64 63 63 62 63 63 63 64 64 64 59 53 47 42 36 32 29 27 25 23 20 18 17 15 15 16 16 16 16 15 13 11 12 14 15 16 17
23 23 26 23 23 30 33 31 32 23 10 14 24 25 25 25 26 27 30 40 50 49 42 41 44 45 45 49 56 60 58 54 53 53 50 46 47 50 52 52 54 57 58 59 62 63 63 64 65 65 64 63 63 63 63 63 63 63 62 58 52 47 42 37 33 30 26 24 21 18 17 16 14 13 14 14 14 15 14 13 11 10 11 12 13 15
24 24 24 23 24 28 30 27 20 13 14 26 31 27 26 26 26 30 39 48 53 48 41 41 43 44 47 52 55 53 51 51 52 52 48 45 48 52 55 55 56 58 60 62 64 65 65 66 67 67 66 64 64 64 63 63 63 63 62 58 52 46 41 37 33 29 26 24 21 18 16 15 13 12 12 12 12 13 13 12 11 10 10 11 12 14
23 23 23 25 24 24 24 18 11 15 26 29 27 25 25 25 28 36 48 57 54 43 36 38 41 46 51 53 50 48 49 52 53 50 47 48 51 53 53 55 57 59 61 63 65 65 66 67 68 67 67 66 65 65 63 62 62 62 62 59 53 46 40 35 31 28 26 24 21 18 16 15 13 11 10 11 11 12 13 13 11 10 10 11 12 14
21 22 24 24 19 18 22 22 22 25 24 18 20 23 24 28 35 41 51 59 51 35 30 36 44 51 54 52 49 48 50 53 55 53 50 50 52 52 52 55 58 60 63 65 67 67 66 67 67 67 66 66 65 64 63 61 60 61 62 60 54 46 40 34 29 27 25 23 21 18 16 15 14 11 10 10 11 12 13 13 11 10 11 12 13 14
22 23 23 21 18 19 21 21 19 17 12 12 20 26 29 35 41 45 52 54 40 29 35 46 51 54 54 51 50 50 49 51 56 57 54 52 52 53 54 57 59 62 65 67 69 71 69 69 68 67 67 67 65 64 62 59 59 60 61 60 54 46 39 33 28 26 25 22 20 18 15 15 14 13 11 11 12 13 13 12 11 10 11 13 13 13
25 25 23 21 21 20 18 14 11 10 12 18 27 33 36 42 48 48 43 37 33 37 48 53 53 53 53 50 49 49 48 48 53 57 55 53 54 55 57 59 62 65 67 68 70 72 71 70 70 68 68 67 65 63 60 58 58 59 60 59 54 46 38 32 27 26 24 21 19 17 14 13 14 13 13 12 13 13 12 12 11 11 12 13 12 10
28 25 23 22 21 20 17 16 15 15 19 25 32 39 44 48 49 38 25 29 44 53 53 52 52 53 52 50 48 48 48 48 52 56 56 55 57 59 59 61 63 65 68 71 72 72 72 71 71 70 69 67 65 62 60 57 56 57 59 59 54 45 37 30 26 26 24 20 18 15 12 11 11 12 12 13 13 12 11 11 11 12 12 10 8 8
28 24 22 22 22 20 17 18 22 23 24 30 38 45 48 49 44 32 28 41 55 55 51 52 54 53 52 50 49 49 50 51 52 54 56 56 59 61 62 63 65 66 69 71 72 73 73 72 71 70 69 67 64 61 58 56 55 56 58 58 54 45 35 29 26 24 21 18 15 11 9 8 9 10 11 13 13 10 9 10 12 13 11 7 6 9
27 25 23 21 21 20 18 20 23 24 27 36 44 47 48 45 41 40 47 54 54 52 53 54 53 52 52 51 50 51 53 53 54 55 57 59 60 62 63 64 65 67 69 71 72 73 73 73 72 70 67 64 61 58 56 54 54 55 56 56 53 45 34 28 25 22 18 14 11 9 7 7 9 10 11 11 12 10 8 9 13 13 8 4 7 12
25 24 23 22 21 21 19 15 14 19 31 43 47 47 46 43 43 48 53 53 50 51 53 53 53 53 52 52 52 53 54 55 56 57 59 60 60 61 63 64 66 68 70 72 73 73 73 73 72 70 66 62 58 55 54 53 53 54 55 55 52 43 33 26 23 19 14 11 8 7 6 7 8 10 10 10 10 9 8 10 12 10 4 3 9 15
25 24 26 26 24 23 20 17 19 30 42 48 48 48 49 49 49 51 51 50 51 52 52 54 55 53 51 53 54 53 55 56 57 58 59 60 60 62 64 65 67 69 71 73 74 73 73 72 71 68 64 59 55 53 51 50 52 53 54 54 51 42 30 24 20 15 10 8 7 6 6 6 7 8 8 8 7 8 10 13 11 5 2 5 12 16
29 29 29 29 28 26 26 28 35 42 46 48 50 52 53 54 54 53 51 51 52 52 52 53 54 52 52 53 53 54 56 57 57 58 59 60 61 63 65 67 68 69 72 74 74 73 72 70 69 66 62 57 53 50 48 48 51 52 53 54 51 41 29 22 17 11 7 7 7 6 6 6 5 5 5 6 8 10 12 12 8 3 1 6 13 15
33 33 30 30 32 31 32 35 39 44 48 52 54 55 55 55 55 53 51 51 51 52 52 52 53 54 53 52 53 55 56 57 58 59 60 61 63 64 66 68 70 71 73 74 73 72 70 68 66 63 60 56 52 49 47 47 49 51 53 53 50 40 29 20 14 8 6 6 6 6 6 4 1 2 4 6 9 11 10 9 8 2 1 7 13 14
33 33 32 32 33 33 36 40 42 46 52 55 55 56 56 56 54 51 50 50 51 53 53 53 53 54 53 53 54 56 56 58 59 60 61 63 65 66 68 70 72 73 74 73 71 69 68 66 64 61 59 56 51 47 45 46 48 50 52 53 49 39 28 19 12 7 5 5 5 5 4 2 1 1 5 6 6 6 6 9 10 5 4 9 14 14
32 32 33 34 33 34 40 44 46 51 54 54 54 56 56 54 52 50 49 50 52 53 54 54 54 54 54 54 55 55 57 59 60 62 65 67 67 69 71 72 73 74 73 72 70 67 66 64 62 59 58 55 51 47 45 46 48 50 52 52 47 38 27 17 10 6 4 4 5 4 2 1 1 1 4 4 3 3 5 8 9 6 6 11 15 14
30 32 32 33 35 38 43 47 51 57 58 56 54 55 54 52 51 50 50 51 53 54 55 55 54 54 55 55 56 58 59 61 62 64 66 68 70 71 72 73 73 73 72 70 68 66 64 63 60 58 56 53 50 46 45 45 48 50 52 51 46 36 26 15 8 5 4 4 4 2 1 0 0 1 3 2 2 4 7 8 7 6 7 10 12 13
30 32 32 33 38 43 46 48 51 56 59 58 56 54 53 50 49 49 52 53 55 55 56 57 57 57 57 58 59 61 61 62 64 66 67 70 71 71 71 72 71 71 70 69 67 65 63 61 58 56 54 52 48 45 44 45 48 50 51 50 45 36 25 15 7 4 5 4 2 1 2 1 0 2 3 3 3 4 6 5 4 7 9 9 9 11
30 30 32 36 42 46 48 49 51 54 56 57 55 53 52 49 49 51 53 53 54 55 56 57 57 58 58 59 60 60 60 61 62 65 69 71 71 70 70 70 70 70 69 68 66 64 62 58 55 53 52 50 47 44 44 45 48 49 50 49 45 36 25 15 7 4 5 4 2 2 3 1 2 3 4 4 4 6 7 4 1 4 8 9 9 11
Wind_Direction
353 332 1 25 24 23 21 21 19 10 356 348 357 359 348 341 333 333 332 326 327 321 318 312 282 273 284 303 317 311 306 306 305 306 306 307 307 308 309 309 310 310 309 309 312 315 316 314 313 311 309 308 307 306 305 305 304 304 305 306 305 305 305 305 303 300 297 295 293 291 290 288 286 284 283 282 280 278 276 274 273 273 271 270 268 268
337 346 33 36 25 21 15 13 12 6 346 332 341 333 335 340 334 334 336 327 324 317 319 320 287 277 288 302 313 313 307 302 302 304 302 303 305 304 306 307 309 308 308 311 314 314 313 312 312 311 310 309 308 307 307 307 306 307 309 310 311 310 310 310 308 304 301 299 297 294 292 289 286 285 285 285 285 283 280 277 274 272 271 270 268 266
353 22 39 27 16 13 1 5 9 2 344 327 324 307 316 335 335 334 336 327 319 313 317 316 291 277 282 292 307 313 306 299 298 302 304 306 305 303 305 308 309 309 311 313 314 314 314 315 314 312 311 309 309 308 307 307 308 310 311 312 314 313 312 312 309 304 301 300 298 297 295 291 289 288 288 286 285 284 283 280 277 274 272 271 270 267
19 36 32 15 7 357 353 6 6 357 351 325 303 298 307 331 335 329 328 326 317 312 312 302 286 276 270 286 311 313 304 300 298 301 307 309 308 306 307 310 311 313 314 314 315 317 316 315 312 310 309 308 308 308 308 309 311 313 314 315 316 315 313 312 308 302 299 299 298 295 292 290 292 292 291 289 286 283 283 282 280 277 273 270 267 266
27 31 17 5 354 353 359 3 358 355 359 333 298 297 309 329 334 322 320 321 317 322 320 296 289 288 280 305 320 313 307 304 299 300 308 312 311 309 310 314 317 317 316 315 316 316 314 312 310 309 309 310 312 312 312 314 316 317 318 319 318 316 314 311 307 301 297 297 297 293 288 288 290 291 291 290 288 286 284 282 280 277 271 265 260 259
23 20 6 358 354 2 2 352 352 353 356 344 303 304 318 331 331 320 320 321 317 325 326 310 307 292 296 329 323 311 311 306 299 300 309 314 312 311 316 319 318 317 315 314 313 313 312 312 313 314 315 316 316 316 316 317 317 318 319 320 318 315 312 308 305 301 296 294 294 292 287 286 289 291 291 290 288 288 286 285 283 278 270 263 259 257
1 2 3 1 1 7 358 346 350 351 349 345 325 324 330 335 330 321 322 317 307 312 311 304 303 281 291 321 323 314 307 298 296 300 307 313 312 314 319 318 315 313 312 311 310 310 313 315 317 319 321 320 316 314 316 316 316 316 317 317 314 310 306 302 299 297 294 291 290 288 283 284 289 292 292 290 288 288 287 286 286 283 277 267 261 258
337 346 2 7 6 5 358 350 347 347 344 337 332 333 337 339 332 321 316 304 296 309 308 297 319 311 300 316 321 311 296 288 297 301 303 310 312 315 317 314 312 311 309 308 310 314 316 317 318 321 322 319 315 313 315 316 315 316 316 314 311 307 303 299 296 295 295 293 288 284 283 286 290 291 289 288 287 287 286 285 284 281 280 274 267 262
319 322 348 1 5 5 359 351 341 341 340 334 333 334 340 342 333 320 309 295 299 309 299 330 359 335 308 315 312 297 293 295 295 293 300 309 312 314 314 312 310 309 309 311 314 317 316 316 319 323 321 316 313 313 315 317 318 319 318 317 316 313 308 303 299 299 301 301 292 287 288 289 289 287 285 286 287 286 284 282 281 278 276 275 273 269
329 315 321 343 358 2 356 347 339 339 335 333 333 335 341 346 335 323 308 293 296 288 266 350 359 349 308 314 308 284 304 298 289 301 310 312 310 313 316 315 312 311 314 316 316 317 317 318 322 324 320 314 311 311 314 317 319 321 321 321 320 316 310 306 303 301 304 305 298 294 294 290 287 287 286 288 287 285 284 283 281 277 273 272 273 270
340 322 308 325 346 352 349 346 343 341 338 337 337 337 342 349 342 325 314 307 285 260 289 331 342 337 309 312 311 310 318 311 313 315 312 311 313 320 324 321 319 317 317 316 315 318 321 322 323 324 322 318 313 312 314 316 320 323 322 320 319 313 307 302 301 301 304 306 299 293 293 291 290 292 294 295 291 284 286 288 285 280 275 273 273 272
338 321 308 314 322 333 342 346 344 345 347 339 336 341 344 348 350 339 330 330 270 259 319 320 328 326 296 288 299 306 316 318 318 316 314 319 324 329 326 320 317 314 312 314 317 321 324 324 324 324 321 315 312 312 313 315 319 322 321 320 320 316 310 304 303 305 307 305 298 293 293 292 294 297 298 301 299 287 282 284 286 286 283 279 279 277
333 318 307 302 303 324 342 345 344 348 350 336 336 349 354 346 349 350 330 332 282 289 314 320 324 316 288 303 307 313 319 317 316 317 323 329 325 318 315 314 314 314 316 318 321 324 324 324 324 322 317 313 312 314 315 316 319 322 323 322 321 319 316 312 307 305 303 302 299 297 295 294 296 297 297 299 301 295 283 279 282 285 286 285 283 282
336 319 300 299 305 328 343 345 345 346 348 350 347 354 3 347 335 334 308 314 303 300 312 319 315 300 305 314 314 317 317 314 316 325 328 320 313 312 314 316 317 320 321 320 322 325 323 323 323 320 316 313 313 316 316 316 319 322 323 323 321 317 315 313 308 303 302 301 300 297 295 295 295 295 294 293 295 295 291 284 281 281 282 283 283 284
336 311 292 306 309 322 339 342 343 343 341 349 346 345 351 337 291 287 297 308 303 298 309 315 305 310 324 314 312 314 311 310 318 319 314 309 311 314 316 319 321 322 320 317 321 326 323 322 322 320 318 315 316 318 317 316 319 321 322 322 321 317 316 317 312 305 301 298 294 289 286 286 287 288 289 288 287 289 289 284 281 279 277 276 275 276
328 312 299 307 301 314 335 337 337 343 333 330 336 330 335 327 277 266 276 287 296 294 304 309 298 308 312 309 312 310 305 312 311 308 308 311 316 318 319 321 321 322 320 317 321 326 326 323 321 320 319 317 319 321 319 317 317 319 320 321 322 319 318 318 315 305 294 288 284 282 284 283 280 280 283 281 278 280 281 278 276 274 273 272 271 272
327 323 312 307 301 321 335 332 331 337 323 331 333 319 329 324 275 272 279 291 300 291 296 304 301 307 312 315 314 303 312 318 311 308 313 317 320 320 319 320 319 320 319 318 322 327 327 324 320 318 318 318 320 321 319 317 316 317 320 322 323 322 320 318 316 309 296 286 283 284 288 287 279 275 274 273 273 275 276 273 271 272 272 273 271 271
325 324 323 312 310 329 336 328 325 324 314 331 331 321 335 338 283 282 288 301 307 283 296 302 302 309 313 313 310 311 317 317 312 314 318 320 321 321 320 321 322 322 320 320 326 328 326 323 319 317 317 317 318 318 317 316 315 317 321 323 324 324 321 318 317 314 306 297 292 292 294 292 283 277 272 270 272 274 271 268 269 271 272 274 274 271
327 319 324 318 315 330 334 320 319 321 317 325 327 327 340 348 303 296 293 302 302 277 298 302 304 308 303 300 313 318 317 313 315 320 321 322 322 322 321 322 322 322 321 324 327 327 326 323 319 318 318 317 316 315 316 316 316 319 322 323 324 324 323 320 317 315 311 306 301 298 299 296 290 285 278 273 273 273 269 264 265 267 268 272 275 273
331 315 306 310 320 330 328 308 308 314 311 315 320 323 327 326 299 295 291 281 283 293 302 305 307 306 304 310 316 318 315 317 321 323 323 323 322 321 322 322 322 322 323 325 325 325 325 323 320 318 317 316 315 315 316 318 320 322 324 324 325 325 323 322 320 316 312 308 303 301 300 297 292 287 282 278 274 272 270 267 264 265 268 270 271 271
333 318 287 306 327 332 315 299 303 306 303 306 312 306 305 312 315 308 292 264 258 299 306 310 305 295 308 318 316 312 316 321 324 324 323 323 323 323 324 323 323 322 323 324 325 325 324 322 321 319 319 319 318 319 320 322 323 324 325 326 326 326 325 324 321 317 313 308 303 302 301 298 294 288 283 279 275 272 271 272 270 268 270 269 267 268
330 318 293 308 327 326 310 305 307 305 298 301 306 296 291 306 322 328 300 255 268 301 296 299 288 294 309 322 315 313 318 321 325 325 323 323 325 326 325 324 322 323 324 325 327 328 325 323 322 321 322 323 323 324 325 325 325 325 326 328 328 327 327 325 323 319 315 308 304 304 303 300 296 292 288 283 278 274 272 274 275 273 270 267 264 266
324 318 307 314 323 318 309 311 311 304 296 303 310 301 295 303 311 319 298 279 295 301 297 293 276 293 311 322 315 317 321 323 326 325 321 324 327 326 325 324 323 324 325 326 327 328 326 323 324 323 324 326 327 327 326 325 326 327 328 330 329 328 328 327 324 321 317 309 305 306 305 302 299 296 292 286 280 277 274 276 278 274 268 261 261 267
321 322 319 319 321 315 309 315 318 313 310 316 318 310 303 304 306 308 302 295 297 295 299 297 270 292 310 319 317 319 322 324 326 325 322 326 327 326 324 324 325 326 327 328 328 328 325 324 325 326 326 328 329 328 327 326 328 329 330 331 330 329 328 327 325 321 316 309 307 308 308 306 301 297 293 288 283 280 277 276 276 273 268 264 267 273
320 322 322 322 326 327 325 330 328 322 318 316 312 305 301 301 302 305 305 300 293 295 303 297 274 296 311 320 320 321 324 326 325 323 325 328 327 326 325 325 326 327 329 331 329 325 324 325 327 328 329 330 329 328 329 330 330 331 331 331 331 330 328 326 324 320 314 309 308 310 310 306 300 296 292 286 283 280 275 272 269 264 261 259 263 268
312 315 319 313 306 319 316 314 318 314 309 308 305 300 298 298 298 300 301 292 290 303 303 286 282 300 314 322 323 324 327 326 323 323 327 329 327 327 326 325 327 329 331 332 328 324 326 329 330 330 331 330 329 330 331 332 332 332 332 332 332 330 328 325 323 318 313 309 309 310 309 305 301 299 293 285 282 279 276 272 263 256 253 252 255 261
308 310 312 294 276 289 302 308 314 309 302 307 308 300 295 294 295 296 291 287 299 305 300 294 296 303 312 320 323 325 326 323 322 326 328 329 329 330 328 326 329 331 330 328 327 327 330 332 331 332 332 331 332 333 333 333 333 333 334 333 332 330 328 325 322 317 313 311 310 311 309 304 303 303 300 295 290 285 276 262 249 248 247 245 249 255
304 306 309 297 286 297 310 314 315 308 305 310 307 297 292 291 291 289 281 293 307 303 295 306 312 307 309 317 322 323 322 320 323 327 329 330 330 329 329 330 331 331 329 327 328 330 332 333 332 332 333 334 335 335 334 334 335 335 334 333 331 330 327 324 321 316 313 312 312 311 308 303 303 305 304 303 300 291 276 257 248 248 244 240 244 249
304 306 310 304 296 305 316 318 315 314 314 311 304 296 291 288 288 287 288 303 311 296 293 309 314 307 309 317 321 320 319 320 324 327 328 330 332 330 331 334 333 331 330 330 332 334 334 335 335 334 335 337 337 336 335 335 336 336 335 333 331 330 328 325 320 315 312 313 313 311 306 302 303 307 307 308 306 298 285 268 259 257 254 251 251 251
305 307 310 308 305 312 323 324 318 320 318 312 306 298 290 287 286 286 297 309 310 300 302 310 309 307 313 319 317 315 317 321 325 328 328 331 335 336 335 334 332 331 332 334 336 337 336 336 337 338 339 340 338 337 336 337 337 336 335 333 331 330 328 325 320 316 312 312 312 310 304 301 305 309 311 312 310 306 297 281 268 263 261 259 257 256
306 307 310 312 310 316 328 325 315 320 319 313 309 299 289 291 288 284 297 309 311 311 315 315 309 309 317 318 312 313 319 324 327 329 331 334 337 338 336 335 333 334 336 338 338 338 338 338 338 339 341 341 339 338 338 338 338 336 335 334 333 331 328 324 320 317 313 312 312 309 302 300 306 310 314 318 317 312 306 293 278 267 262 260 259 261
306 305 310 317 313 316 325 322 318 325 322 312 311 308 301 299 291 287 295 305 313 318 319 316 312 313 317 314 312 317 323 326 328 331 336 339 338 335 333 334 335 337 339 340 339 339 340 340 340 341 341 340 339 339 339 339 337 336 336 336 334 332 328 324 321 318 315 314 313 308 299 297 303 309 314 320 320 316 311 304 291 273 263 262 264 266
303 304 312 319 311 313 323 324 324 328 320 305 314 316 308 300 290 288 294 305 318 323 320 314 313 315 315 314 317 322 325 327 329 331 335 339 338 335 334 335 337 339 341 341 341 341 341 342 342 342 341 340 339 339 339 338 337 337 338 337 336 333 329 325 323 321 318 317 314 307 295 292 298 308 316 321 321 319 316 313 303 282 269 267 269 271
302 306 313 317 309 312 323 327 327 329 316 309 318 312 302 299 295 294 300 311 321 325 320 314 315 316 316 317 320 323 324 326 327 331 335 336 334 335 337 338 339 340 341 342 342 342 342 342 342 341 340 340 340 339 338 338 338 338 339 339 337 334 330 326 324 323 321 320 316 305 291 285 293 306 315 320 321 318 314 309 304 293 280 276 276 277
304 309 314 318 313 312 322 330 333 330 318 315 313 306 302 301 297 299 305 315 324 325 319 318 319 317 317 318 320 322 323 324 326 331 337 337 335 337 338 339 340 341 341 342 343 342 342 342 341 340 340 341 340 339 337 338 338 338 340 341 339 336 331 327 325 324 322 322 318 306 287 279 285 298 309 318 319 313 308 304 301 296 288 284 283 282
305 310 315 319 317 314 321 330 322 313 315 310 302 304 308 304 304 309 313 319 325 325 319 319 319 317 317 320 321 323 324 325 327 331 335 335 336 338 338 338 339 341 341 342 342 342 342 341 341 340 341 341 340 338 337 337 338 339 341 342 340 337 333 329 325 323 322 321 318 307 287 272 275 288 302 313 313 307 305 304 301 298 291 285 282 282
309 313 316 318 316 313 316 316 311 314 316 303 296 309 314 310 315 319 318 319 324 325 321 319 319 320 322 324 325 325 326 327 329 331 333 334 335 336 335 335 337 339 340 341 341 341 341 340 340 341 341 340 339 338 336 336 338 339 341 342 341 338 335 331 326 323 322 319 315 307 287 269 268 278 292 303 306 307 308 304 299 296 293 287 285 290
312 313 314 311 310 312 314 314 316 320 320 308 310 317 318 316 319 319 316 316 322 327 325 324 324 326 327 327 327 327 327 326 327 329 332 333 333 334 333 333 334 335 337 338 339 340 339 339 340 341 341 340 338 337 336 336 338 340 341 342 341 338 335 332 328 324 322 318 315 307 288 268 263 272 286 298 303 308 310 306 299 296 294 292 295 298
315 315 314 310 309 312 311 305 302 302 306 313 318 321 321 320 320 319 315 314 321 325 326 327 329 329 328 327 327 328 327 324 323 326 330 331 331 332 331 331 332 333 334 336 338 338 339 339 339 340 340 339 337 336 336 336 338 340 341 342 342 339 336 333 329 325 322 321 318 312 295 270 261 271 286 296 301 306 309 307 302 299 298 299 301 302
319 317 314 311 310 311 305 295 295 300 304 312 320 323 323 322 323 321 314 314 322 326 328 329 329 329 329 327 327 327 327 323 321 323 328 329 330 331 331 330 331 332 333 335 336 337 338 338 339 340 340 339 337 336 335 336 338 340 342 342 342 340 336 334 331 326 324 323 322 315 300 276 263 270 286 295 300 305 307 306 305 305 306 307 309 318
320 315 312 311 311 312 306 297 300 308 314 320 323 324 323 325 327 323 314 317 322 326 329 330 330 331 331 329 328 326 324 323 322 324 327 329 330 331 332 331 331 331 332 333 335 337 338 338 339 339 339 338 337 335 335 335 338 341 342 342 342 340 337 334 331 327 325 325 324 317 301 279 269 273 285 293 299 304 305 306 310 313 314 316 329 336
319 315 314 314 310 309 308 304 305 314 323 326 325 324 325 328 326 320 317 320 324 328 330 331 331 331 331 329 328 326 324 324 326 328 329 330 331 332 332 332 331 332 332 333 335 337 338 338 338 338 338 338 336 335 335 336 338 341 342 342 341 339 336 333 330 328 326 328 328 320 301 281 276 280 287 293 298 301 300 305 312 316 318 327 343 340
319 316 316 316 312 312 313 310 308 318 325 326 326 327 328 325 319 315 317 321 326 330 331 330 331 332 332 331 329 327 326 327 328 329 330 331 332 332 333 333 333 332 333 334 336 337 337 337 337 337 338 338 337 336 336 336 338 340 342 343 341 338 335 333 330 329 329 332 331 321 304 289 284 288 293 296 298 300 303 310 314 312 308 342 344 339
322 320 318 317 317 315 312 310 318 323 325 327 328 328 326 323 319 318 320 324 329 332 331 330 332 334 333 332 331 329 329 329 329 331 331 331 332 333 334 334 334 334 335 336 336 337 337 336 336 337 338 338 337 336 336 337 338 340 343 343 341 338 336 334 331 329 331 334 331 322 313 306 301 300 299 297 299 304 308 315 315 298 262 348 344 339
325 326 322 319 319 315 309 315 325 326 326 327 328 327 327 325 323 323 325 327 330 332 332 332 333 334 335 334 332 330 330 330 331 332 333 333 334 335 334 334 335 335 336 336 336 336 336 336 336 337 338 339 338 337 337 338 338 340 342 343 341 339 336 334 332 329 331 336 334 328 328 324 313 309 308 303 305 309 312 319 320 285 244 343 343 342
326 328 325 323 323 318 315 324 330 327 325 328 328 328 327 326 325 326 327 328 330 332 333 333 334 335 336 335 333 332 331 332 333 334 334 334 335 335 335 335 335 336 336 336 336 336 336 336 336 337 338 339 339 338 338 339 339 340 342 342 341 339 336 333 331 329 331 336 336 336 338 334 296 302 319 313 312 316 322 332 336 321 298 338 345 346
329 330 327 327 326 321 323 331 331 324 325 328 328 328 329 327 326 326 327 328 330 332 333 335 335 335 335 335 334 333 333 334 334 334 334 335 335 335 336 336 336 336 335 335 336 336 336 336 337 338 339 340 339 338 339 339 340 341 342 342 341 339 336 332 328 324 325 332 338 346 346 335 169 328 331 328 328 330 334 338 341 337 317 335 344 342
332 330 329 329 327 325 327 331 329 324 326 329 330 330 330 327 326 327 327 329 331 333 334 335 335 335 335 336 335 334 334 335 335 335 335 336 336 337 336 336 335 335 335 336 336 336 336 337 338 338 339 340 339 339 339 340 341 342 341 341 341 339 335 331 324 314 311 324 340 359 360 351 73 2 339 346 359 356 345 342 344 339 326 335 341 338
335 333 333 331 328 328 330 331 327 326 329 334 334 331 329 328 327 328 329 331 333 335 335 334 334 336 336 336 335 335 335 336 336 336 336 336 336 336 336 335 335 335 336 335 336 336 337 337 338 338 339 339 339 339 339 340 342 342 340 340 342 340 334 328 317 300 294 310 338 7 35 30 36 309 329 3 22 1 353 349 345 340 333 334 336 339
339 336 336 333 330 331 331 329 326 325 328 334 335 332 331 331 329 328 331 334 335 335 334 334 336 338 338 337 336 336 337 336 336 337 336 335 335 335 334 335 336 336 336 335 336 337 337 337 338 338 338 339 339 339 340 341 341 340 339 340 342 342 335 324 307 275 267 285 311 210 184 170 9 329 353 31 51 22 10 4 347 337 333 328 333 347
341 338 337 334 332 330 329 329 328 327 329 332 334 333 333 333 331 331 334 335 334 334 335 336 337 338 337 336 336 337 336 335 335 335 334 334 334 335 336 336 337 336 336 336 336 337 337 337 338 338 338 339 339 339 340 341 340 339 339 341 343 343 336 321 299 258 247 259 263 212 190 151 30 10 15 27 16 4 7 26 50 314 312 314 331 352
Height
3123 3123 3121 3120 3120 3119 3119 3118 3118 3118 3117 3116 3114 3113 3112 3110 3108 3106 3104 3102 3099 3096 3094 3093 3091 3088 3087 3086 3085 3084 3082 3080 3079 3077 3075 3073 3071 3070 3068 3067 3065 3063 3061 3059 3057 3054 3050 3047 3043 3039 3035 3031 3027 3023 3019 3015 3011 3007 3004 3000 2997 2995 2992 2990 2987 2983 2981 2978 2975 2973 2970 2968 2966 2965 2966 2967 2968 2969 2969 2970 2971 2970 2970 2971 2973 2974
3123 3122 3121 3121 3121 3120 3120 3119 3118 3117 3116 3115 3113 3111 3111 3109 3105 3104 3102 3099 3097 3095 3092 3090 3088 3085 3085 3084 3082 3081 3079 3077 3076 3074 3073 3071 3069 3067 3066 3064 3062 3060 3058 3056 3053 3050 3046 3043 3038 3034 3030 3025 3021 3017 3012 3008 3004 3000 2996 2993 2989 2985 2984 2982 2979 2975 2972 2971 2968 2965 2963 2961 2959 2957 2956 2956 2957 2957 2958 2959 2960 2960 2960 2961 2962 2964
3123 3122 3122 3122 3121 3121 3120 3119 3118 3116 3115 3113 3112 3110 3109 3108 3103 3099 3099 3098 3096 3092 3088 3087 3085 3084 3083 3081 3080 3079 3077 3075 3073 3072 3070 3069 3067 3065 3063 3061 3059 3057 3055 3053 3049 3045 3041 3037 3032 3028 3024 3020 3015 3010 3006 3001 2997 2993 2989 2985 2982 2978 2975 2975 2972 2968 2965 2963 2962 2959 2955 2953 2952 2951 2950 2948 2948 2948 2948 2948 2949 2950 2951 2951 2951 2952
3123 3123 3123 3122 3121 3121 3119 3118 3117 3116 3114 3112 3111 3110 3108 3107 3103 3097 3095 3095 3094 3091 3087 3084 3082 3081 3081 3079 3078 3076 3074 3072 3071 3070 3068 3067 3065 3063 3061 3059 3057 3055 3051 3047 3043 3039 3035 3031 3027 3023 3018 3014 3009 3004 2998 2993 2989 2985 2982 2979 2976 2972 2969 2968 2967 2963 2959 2956 2955 2954 2950 2947 2945 2945 2944 2941 2940 2940 2940 2940 2940 2941 2942 2943 2942 2942
3123 3123 3123 3122 3121 3120 3118 3117 3116 3115 3113 3112 3111 3110 3107 3105 3104 3099 3094 3092 3090 3089 3085 3082 3080 3078 3078 3078 3076 3074 3072 3070 3068 3067 3066 3064 3063 3061 3059 3056 3053 3050 3045 3041 3037 3034 3030 3026 3022 3018 3014 3008 3002 2997 2991 2986 2982 2978 2975 2972 2969 2967 2963 2961 2960 2957 2954 2950 2949 2947 2944 2941 2939 2938 2937 2935 2934 2933 2932 2932 2933 2933 2934 2934 2934 2934
3124 3123 3122 3122 3120 3119 3117 3116 3115 3114 3113 3112 3111 3110 3108 3104 3101 3098 3094 3091 3087 3085 3083 3082 3081 3076 3075 3076 3073 3071 3070 3068 3066 3065 3063 3062 3060 3057 3055 3052 3048 3045 3041 3038 3034 3030 3025 3021 3016 3011 3007 3000 2994 2990 2986 2981 2977 2973 2970 2967 2964 2961 2958 2955 2953 2952 2949 2946 2943 2941 2938 2935 2933 2931 2930 2929 2928 2926 2925 2925 2925 2925 2926 2927 2927 2926
3123 3123 3122 3121 3120 3118 3118 3116 3115 3113 3112 3111 3110 3109 3107 3103 3099 3095 3093 3091 3087 3084 3082 3082 3082 3076 3073 3074 3072 3069 3068 3065 3064 3063 3061 3059 3057 3054 3051 3048 3045 3041 3038 3034 3030 3026 3020 3014 3008 3003 2999 2994 2989 2985 2981 2977 2974 2970 2967 2964 2961 2957 2954 2951 2948 2947 2944 2941 2939 2936 2933 2931 2928 2925 2923 2922 2921 2920 2919 2918 2918 2918 2918 2919 2920 2920
3123 3123 3122 3121 3119 3118 3117 3115 3114 3113 3111 3110 3108 3107 3104 3100 3096 3092 3091 3089 3087 3084 3080 3080 3081 3076 3072 3072 3070 3067 3065 3063 3062 3061 3059 3057 3054 3051 3048 3045 3042 3038 3034 3030 3025 3019 3014 3008 3003 2998 2993 2988 2984 2980 2976 2973 2969 2965 2962 2959 2956 2952 2949 2946 2943 2941 2939 2937 2934 2932 2929 2926 2923 2920 2917 2915 2915 2914 2913 2912 2912 2911 2911 2911 2912 2912
3123 3122 3122 3120 3119 3118 3116 3115 3113 3112 3110 3108 3106 3104 3101 3097 3093 3090 3089 3087 3085 3084 3081 3079 3079 3076 3071 3069 3068 3066 3064 3062 3061 3060 3058 3055 3051 3049 3046 3043 3039 3035 3030 3025 3019 3014 3008 3003 2998 2994 2989 2984 2980 2976 2972 2968 2964 2960 2957 2953 2950 2946 2943 2940 2937 2935 2933 2931 2929 2926 2923 2920 2918 2915 2912 2910 2908 2907 2906 2905 2905 2905 2904 2904 2904 2905
3123 3122 3122 3120 3119 3118 3117 3115 3113 3111 3109 3107 3104 3101 3098 3095 3091 3088 3086 3085 3084 3084 3082 3078 3077 3076 3070 3067 3066 3065 3064 3063 3061 3059 3056 3053 3049 3047 3044 3039 3034 3030 3025 3020 3015 3010 3004 2998 2994 2990 2985 2981 2976 2972 2968 2964 2960 2956 2952 2949 2945 2942 2938 2935 2932 2929 2927 2925 2922 2920 2918 2915 2912 2909 2907 2905 2903 2902 2900 2899 2899 2899 2898 2897 2897 2899
3124 3122 3121 3120 3118 3117 3116 3115 3112 3110 3108 3105 3102 3098 3094 3091 3088 3085 3084 3084 3083 3082 3079 3076 3077 3077 3072 3066 3064 3064 3063 3062 3060 3058 3054 3050 3047 3044 3039 3033 3029 3024 3020 3015 3009 3004 2999 2994 2990 2985 2981 2976 2972 2967 2964 2959 2955 2952 2948 2945 2941 2937 2933 2930 2927 2923 2921 2919 2917 2915 2913 2910 2907 2904 2902 2899 2896 2896 2895 2894 2893 2893 2892 2892 2891 2892
3123 3122 3121 3119 3118 3117 3115 3114 3111 3109 3107 3104 3102 3097 3091 3087 3084 3083 3083 3083 3082 3080 3077 3075 3075 3075 3071 3065 3064 3062 3061 3059 3056 3053 3049 3046 3043 3040 3036 3031 3026 3022 3016 3011 3005 2998 2994 2989 2985 2981 2977 2972 2967 2963 2959 2954 2950 2947 2943 2939 2935 2931 2928 2925 2921 2918 2915 2913 2911 2909 2907 2904 2902 2899 2897 2894 2891 2890 2890 2889 2888 2887 2887 2886 2886 2887
3123 3121 3120 3119 3118 3116 3114 3112 3110 3108 3106 3104 3102 3098 3093 3088 3085 3084 3083 3082 3080 3078 3077 3076 3074 3071 3068 3064 3062 3060 3058 3056 3052 3049 3046 3043 3041 3037 3034 3029 3024 3019 3012 3006 3000 2994 2990 2986 2981 2977 2972 2967 2963 2959 2955 2950 2946 2941 2938 2934 2930 2926 2923 2920 2916 2913 2910 2907 2905 2903 2901 2898 2897 2894 2892 2890 2887 2886 2886 2885 2884 2883 2883 2882 2882 2882
3122 3120 3119 3118 3117 3115 3114 3111 3109 3107 3106 3104 3102 3099 3098 3096 3094 3091 3086 3082 3079 3074 3073 3075 3073 3069 3066 3063 3061 3059 3056 3053 3049 3047 3045 3042 3038 3034 3029 3025 3019 3014 3008 3001 2995 2990 2985 2982 2978 2973 2968 2963 2959 2955 2951 2946 2941 2937 2933 2929 2925 2921 2918 2914 2911 2907 2904 2902 2900 2897 2895 2893 2891 2889 2887 2885 2883 2882 2881 2881 2880 2879 2879 2878 2877 2877
3123 3121 3119 3118 3116 3115 3113 3111 3109 3107 3106 3104 3103 3102 3101 3101 3101 3096 3088 3085 3081 3073 3070 3071 3070 3067 3065 3062 3060 3058 3055 3052 3048 3046 3043 3039 3035 3031 3025 3020 3014 3009 3003 2997 2992 2987 2981 2977 2973 2969 2964 2959 2955 2951 2946 2942 2937 2933 2928 2924 2920 2915 2912 2909 2905 2901 2898 2895 2893 2890 2888 2887 2885 2884 2882 2880 2879 2878 2877 2876 2875 2874 2874 2873 2873 2873
3124 3122 3119 3118 3116 3114 3113 3111 3109 3107 3106 3105 3103 3102 3101 3100 3099 3095 3088 3085 3083 3076 3069 3068 3066 3065 3064 3060 3057 3055 3053 3052 3049 3044 3040 3036 3031 3026 3020 3015 3010 3005 2998 2992 2988 2983 2978 2973 2969 2965 2960 2955 2951 2946 2942 2937 2933 2928 2924 2919 2915 2910 2906 2903 2899 2896 2892 2888 2884 2882 2880 2879 2878 2877 2875 2874 2873 2872 2871 2871 2870 2869 2868 2868 2867 2867
3123 3121 3118 3117 3115 3114 3112 3110 3108 3107 3105 3104 3102 3100 3099 3097 3095 3092 3087 3084 3083 3077 3069 3065 3063 3061 3060 3057 3054 3053 3051 3048 3045 3040 3036 3032 3027 3021 3016 3011 3006 3000 2994 2989 2984 2979 2974 2970 2965 2961 2956 2951 2947 2942 2937 2933 2928 2923 2918 2913 2909 2904 2900 2896 2892 2888 2884 2879 2875 2873 2871 2870 2869 2868 2867 2867 2866 2866 2865 2865 2864 2863 2862 2861 2861 2861
3123 3120 3117 3116 3114 3113 3111 3108 3106 3105 3104 3102 3101 3099 3097 3095 3093 3091 3087 3082 3081 3077 3067 3062 3061 3059 3058 3054 3051 3050 3048 3044 3040 3036 3032 3027 3022 3016 3010 3006 3000 2995 2990 2985 2980 2975 2971 2966 2961 2957 2952 2947 2943 2938 2933 2928 2923 2918 2913 2908 2903 2898 2894 2889 2884 2879 2875 2870 2867 2864 2863 2861 2860 2860 2859 2859 2859 2859 2859 2859 2858 2857 2855 2855 2855 2856
3123 3118 3116 3115 3114 3111 3109 3107 3105 3103 3101 3100 3099 3097 3096 3094 3092 3091 3089 3084 3082 3077 3067 3059 3057 3057 3056 3052 3050 3048 3044 3040 3036 3032 3027 3022 3017 3012 3006 3000 2995 2990 2985 2980 2975 2971 2966 2962 2957 2952 2948 2943 2939 2934 2928 2922 2917 2912 2908 2903 2898 2893 2888 2883 2877 2871 2866 2862 2860 2857 2855 2854 2853 2852 2852 2852 2852 2852 2852 2852 2852 2851 2849 2849 2850 2850
3123 3120 3115 3114 3114 3111 3108 3107 3105 3102 3101 3099 3097 3095 3094 3095 3093 3090 3088 3084 3082 3078 3069 3060 3052 3051 3053 3051 3048 3045 3040 3037 3033 3028 3023 3018 3013 3009 3002 2996 2991 2985 2980 2975 2970 2966 2961 2957 2953 2948 2943 2938 2934 2928 2922 2916 2911 2906 2901 2897 2892 2887 2882 2876 2870 2864 2859 2856 2854 2852 2850 2848 2847 2846 2845 2844 2844 2844 2844 2844 2844 2843 2843 2844 2844 2845
3123 3120 3115 3111 3112 3111 3108 3106 3104 3102 3100 3097 3096 3094 3092 3093 3091 3088 3085 3081 3081 3078 3074 3066 3051 3042 3049 3050 3045 3042 3038 3035 3031 3024 3019 3014 3009 3004 2999 2993 2987 2982 2977 2972 2966 2961 2956 2952 2948 2943 2938 2933 2927 2922 2916 2910 2905 2900 2895 2891 2886 2880 2874 2868 2862 2857 2853 2850 2848 2846 2844 2842 2841 2839 2838 2837 2837 2837 2837 2837 2836 2836 2837 2837 2838 2839
3121 3119 3114 3110 3109 3108 3106 3105 3103 3101 3099 3096 3095 3093 3090 3090 3088 3086 3083 3079 3079 3077 3075 3073 3054 3036 3043 3049 3043 3040 3037 3032 3028 3022 3015 3011 3005 3000 2994 2989 2984 2978 2973 2967 2962 2957 2952 2947 2943 2938 2933 2927 2921 2915 2909 2904 2899 2894 2889 2885 2879 2873 2867 2861 2855 2851 2847 2844 2842 2841 2839 2837 2835 2833 2832 2831 2831 2831 2831 2830 2830 2830 2831 2831 2832 2833
3120 3117 3113 3109 3107 3106 3104 3103 3101 3099 3097 3094 3093 3090 3088 3088 3085 3085 3083 3077 3076 3074 3072 3073 3055 3035 3040 3047 3041 3038 3034 3028 3024 3019 3013 3007 3001 2995 2990 2985 2980 2974 2969 2964 2958 2953 2948 2943 2939 2933 2927 2921 2915 2909 2903 2898 2893 2888 2883 2878 2873 2867 2861 2855 2849 2845 2842 2839 2837 2835 2834 2831 2829 2828 2827 2826 2825 2825 2825 2825 2825 2825 2825 2826 2827 2828
3119 3116 3112 3107 3105 3103 3102 3101 3098 3097 3096 3092 3089 3087 3086 3085 3083 3083 3081 3076 3073 3071 3069 3068 3052 3033 3037 3043 3037 3034 3031 3025 3021 3016 3010 3004 2997 2991 2986 2980 2975 2970 2965 2959 2954 2949 2944 2939 2934 2928 2921 2915 2909 2903 2898 2893 2888 2882 2877 2872 2866 2860 2854 2849 2844 2840 2836 2834 2832 2830 2829 2826 2824 2823 2822 2821 2820 2820 2820 2820 2820 2821 2821 2822 2823 2824
3118 3116 3113 3108 3104 3101 3099 3098 3096 3095 3094 3091 3088 3085 3083 3082 3081 3079 3078 3074 3071 3067 3067 3065 3048 3030 3031 3034 3032 3030 3027 3021 3017 3012 3007 3001 2994 2988 2982 2976 2971 2965 2959 2955 2950 2945 2940 2934 2929 2923 2916 2910 2904 2899 2893 2887 2882 2877 2872 2866 2860 2854 2848 2843 2838 2834 2831 2829 2827 2825 2824 2822 2820 2818 2817 2816 2816 2815 2815 2815 2816 2817 2817 2817 2818 2819
3117 3115 3114 3111 3108 3105 3101 3099 3097 3094 3093 3090 3087 3084 3080 3079 3078 3077 3075 3073 3068 3063 3063 3061 3047 3030 3025 3026 3025 3024 3021 3015 3011 3007 3002 2998 2992 2986 2979 2972 2967 2961 2955 2951 2946 2940 2934 2929 2923 2917 2911 2906 2900 2894 2888 2882 2877 2871 2866 2860 2854 2848 2842 2837 2833 2829 2826 2824 2822 2821 2819 2818 2816 2814 2813 2812 2811 2811 2811 2811 2812 2812 2813 2813 2814 2814
3115 3113 3113 3111 3108 3106 3103 3100 3097 3094 3091 3088 3085 3082 3078 3076 3075 3074 3073 3070 3067 3061 3055 3053 3047 3033 3022 3020 3020 3018 3016 3011 3006 3002 2997 2992 2987 2982 2976 2969 2964 2958 2953 2948 2942 2936 2929 2924 2918 2912 2906 2901 2895 2889 2883 2877 2872 2866 2860 2854 2849 2843 2837 2832 2828 2824 2821 2820 2818 2816 2815 2814 2812 2810 2809 2808 2807 2807 2807 2807 2807 2808 2808 2809 2809 2810
3113 3111 3110 3108 3106 3104 3101 3097 3095 3093 3089 3085 3083 3080 3076 3073 3071 3071 3070 3067 3065 3060 3048 3043 3044 3035 3022 3019 3017 3015 3012 3007 3002 2997 2992 2986 2982 2978 2972 2966 2960 2955 2950 2944 2938 2932 2926 2920 2913 2907 2902 2896 2890 2884 2879 2873 2867 2862 2855 2849 2843 2838 2833 2827 2823 2819 2817 2815 2814 2812 2811 2810 2808 2807 2806 2805 2804 2804 2803 2803 2803 2803 2803 2804 2804 2805
3112 3108 3107 3105 3103 3101 3099 3095 3091 3090 3086 3082 3080 3077 3074 3070 3068 3067 3067 3064 3062 3058 3047 3039 3039 3033 3023 3019 3016 3012 3009 3004 2998 2994 2989 2984 2979 2973 2967 2962 2956 2951 2946 2940 2934 2928 2922 2916 2910 2904 2898 2891 2885 2879 2874 2868 2863 2857 2851 2845 2838 2833 2828 2823 2819 2815 2813 2811 2810 2808 2807 2806 2805 2804 2803 2802 2801 2800 2800 2799 2799 2799 2799 2800 2800 2801
3110 3107 3105 3103 3099 3097 3096 3092 3089 3087 3083 3079 3077 3074 3071 3068 3065 3064 3063 3061 3058 3054 3048 3042 3036 3029 3024 3020 3015 3010 3006 3002 2996 2991 2987 2981 2975 2968 2962 2957 2952 2947 2942 2936 2930 2924 2918 2912 2906 2900 2893 2887 2881 2875 2869 2863 2857 2852 2846 2840 2834 2828 2824 2819 2816 2812 2810 2808 2806 2805 2803 2802 2801 2800 2800 2799 2798 2797 2796 2795 2795 2795 2796 2797 2798 2798
3108 3105 3104 3100 3095 3093 3092 3090 3087 3085 3081 3076 3073 3071 3069 3066 3064 3062 3060 3058 3055 3049 3044 3040 3032 3024 3022 3019 3013 3008 3003 2998 2992 2987 2981 2976 2970 2964 2959 2954 2949 2944 2938 2933 2928 2921 2915 2909 2902 2896 2889 2883 2878 2871 2865 2859 2853 2847 2841 2835 2829 2824 2819 2816 2812 2809 2807 2805 2803 2802 2800 2799 2798 2797 2797 2796 2795 2794 2793 2792 2791 2791 2792 2794 2794 2795
3107 3104 3102 3099 3093 3090 3090 3088 3085 3082 3077 3073 3071 3069 3068 3066 3062 3060 3058 3056 3053 3046 3039 3033 3027 3020 3017 3014 3008 3004 2999 2993 2988 2982 2976 2971 2966 2962 2957 2952 2947 2941 2936 2930 2925 2919 2912 2905 2898 2892 2886 2880 2874 2867 2861 2855 2849 2843 2836 2830 2824 2819 2815 2812 2809 2806 2804 2802 2801 2799 2798 2796 2795 2795 2794 2793 2792 2791 2790 2789 2788 2788 2789 2790 2791 2792
3107 3104 3101 3099 3093 3087 3087 3086 3081 3078 3074 3070 3069 3068 3066 3064 3061 3058 3055 3053 3051 3046 3037 3030 3024 3018 3014 3010 3003 2998 2994 2989 2983 2979 2974 2968 2964 2960 2956 2950 2944 2938 2933 2926 2920 2915 2908 2902 2896 2889 2883 2876 2870 2863 2858 2851 2845 2839 2832 2826 2820 2815 2811 2808 2805 2803 2801 2800 2798 2796 2795 2794 2793 2792 2791 2790 2789 2789 2788 2787 2786 2786 2787 2788 2788 2789
3105 3103 3100 3098 3093 3087 3085 3083 3078 3076 3073 3069 3068 3067 3064 3062 3059 3055 3052 3049 3047 3043 3037 3029 3023 3018 3013 3008 3002 2995 2990 2986 2981 2978 2974 2968 2962 2957 2951 2946 2940 2934 2929 2923 2916 2910 2904 2898 2892 2886 2880 2873 2866 2860 2854 2848 2842 2836 2829 2823 2816 2811 2807 2803 2801 2799 2798 2797 2795 2793 2792 2791 2790 2790 2789 2788 2787 2786 2786 2785 2784 2784 2785 2785 2786 2787
3104 3102 3099 3097 3092 3087 3084 3082 3078 3075 3072 3068 3066 3064 3062 3060 3057 3053 3048 3046 3043 3038 3032 3027 3021 3016 3011 3006 3001 2995 2988 2983 2979 2975 2971 2967 2960 2953 2946 2941 2936 2931 2925 2919 2913 2906 2900 2894 2888 2881 2875 2869 2863 2856 2850 2844 2838 2832 2826 2819 2813 2808 2804 2800 2797 2796 2794 2793 2792 2790 2789 2788 2788 2787 2787 2786 2785 2784 2784 2783 2783 2783 2783 2783 2783 2784
3104 3101 3098 3095 3092 3087 3084 3083 3081 3075 3070 3067 3064 3062 3061 3058 3055 3049 3041 3038 3039 3034 3026 3022 3018 3013 3008 3003 2997 2992 2985 2979 2975 2972 2968 2963 2957 2951 2944 2938 2933 2928 2922 2916 2910 2904 2897 2891 2885 2878 2871 2865 2859 2853 2846 2841 2834 2827 2821 2816 2810 2805 2801 2798 2795 2793 2791 2790 2788 2787 2786 2785 2785 2785 2784 2784 2783 2783 2782 2781 2781 2781 2780 2780 2781 2782
3103 3101 3098 3094 3092 3088 3084 3082 3078 3072 3068 3066 3063 3061 3060 3057 3054 3048 3036 3029 3031 3029 3023 3019 3014 3009 3003 2997 2992 2987 2980 2974 2969 2967 2965 2960 2954 2949 2943 2937 2931 2925 2920 2914 2908 2901 2895 2889 2882 2876 2868 2862 2855 2849 2843 2837 2831 2824 2818 2812 2806 2801 2798 2795 2793 2791 2789 2787 2785 2783 2782 2782 2782 2782 2782 2782 2781 2781 2780 2780 2779 2779 2778 2778 2779 2779
3102 3100 3098 3095 3092 3089 3085 3081 3076 3071 3067 3065 3062 3061 3059 3056 3053 3049 3037 3026 3025 3025 3021 3016 3010 3003 2997 2992 2987 2982 2976 2969 2963 2960 2958 2955 2950 2945 2940 2934 2929 2923 2917 2911 2904 2897 2890 2884 2878 2872 2865 2858 2852 2846 2839 2833 2827 2821 2815 2808 2803 2798 2794 2792 2790 2788 2785 2783 2781 2780 2779 2779 2779 2779 2780 2780 2779 2778 2778 2778 2777 2777 2776 2776 2776 2777
3101 3099 3097 3094 3091 3088 3086 3082 3078 3073 3067 3064 3062 3060 3058 3053 3050 3045 3036 3027 3024 3023 3018 3012 3006 2999 2994 2988 2983 2978 2973 2966 2959 2955 2953 2950 2946 2941 2936 2930 2925 2919 2913 2907 2900 2893 2885 2879 2873 2867 2861 2854 2847 2841 2835 2830 2824 2818 2811 2805 2800 2795 2791 2789 2786 2784 2782 2780 2779 2777 2776 2776 2777 2777 2777 2777 2777 2776 2776 2775 2775 2775 2774 2774 2774 2774
3099 3096 3095 3093 3090 3088 3086 3082 3078 3074 3068 3065 3063 3060 3056 3051 3046 3041 3033 3025 3021 3019 3014 3008 3002 2997 2991 2986 2981 2976 2972 2965 2958 2953 2950 2947 2942 2938 2933 2927 2921 2915 2908 2902 2896 2889 2882 2874 2868 2861 2855 2849 2843 2837 2831 2826 2820 2815 2808 2802 2797 2792 2789 2786 2784 2781 2779 2778 2776 2775 2774 2774 2774 2775 2775 2774 2774 2774 2774 2773 2773 2772 2772 2772 2772 2772
3098 3095 3093 3091 3088 3087 3085 3081 3076 3072 3068 3064 3060 3057 3052 3047 3043 3039 3031 3022 3017 3014 3010 3005 3000 2994 2989 2984 2979 2974 2970 2966 2959 2953 2948 2944 2939 2934 2930 2924 2918 2912 2906 2899 2892 2885 2877 2870 2864 2858 2852 2846 2839 2833 2827 2822 2817 2812 2806 2800 2794 2789 2786 2783 2781 2779 2777 2775 2774 2773 2772 2772 2772 2773 2773 2772 2772 2772 2772 2771 2771 2770 2770 2771 2771 2770
3097 3095 3092 3090 3087 3085 3083 3080 3075 3070 3067 3064 3059 3054 3049 3044 3039 3034 3028 3022 3017 3012 3006 3002 2997 2992 2986 2982 2977 2972 2967 2962 2957 2951 2945 2941 2935 2930 2925 2920 2913 2907 2901 2895 2888 2880 2872 2865 2859 2853 2848 2842 2836 2829 2823 2818 2813 2809 2803 2797 2792 2787 2783 2781 2779 2777 2775 2774 2773 2772 2771 2771 2771 2771 2771 2771 2770 2770 2770 2770 2769 2769 2769 2769 2769 2768
3097 3095 3092 3090 3087 3084 3082 3079 3075 3070 3065 3062 3057 3052 3047 3043 3038 3031 3024 3019 3015 3010 3003 2998 2994 2989 2984 2978 2974 2969 2963 2958 2953 2948 2942 2937 2932 2927 2921 2915 2909 2902 2896 2889 2882 2876 2868 2860 2854 2849 2843 2838 2832 2826 2820 2814 2810 2806 2800 2795 2789 2785 2781 2779 2777 2775 2774 2772 2771 2771 2770 2770 2770 2769 2769 2769 2769 2768 2768 2768 2768 2768 2768 2767 2767 2767
3098 3096 3092 3089 3087 3085 3081 3079 3076 3071 3066 3061 3056 3051 3046 3041 3035 3028 3021 3015 3011 3007 3001 2995 2990 2986 2982 2975 2970 2964 2959 2954 2949 2944 2938 2933 2928 2922 2916 2910 2905 2898 2891 2884 2877 2871 2864 2856 2850 2844 2839 2834 2828 2822 2817 2811 2806 2802 2798 2792 2787 2782 2779 2777 2775 2773 2772 2771 2770 2770 2769 2769 2768 2768 2768 2767 2767 2767 2767 2767 2766 2766 2766 2766 2766 2765
3097 3095 3093 3089 3087 3085 3081 3078 3075 3070 3064 3060 3055 3050 3044 3038 3032 3026 3019 3013 3009 3005 2999 2993 2987 2983 2979 2973 2967 2961 2956 2950 2945 2940 2934 2928 2923 2918 2912 2906 2900 2894 2886 2879 2873 2866 2860 2853 2846 2840 2835 2830 2825 2819 2814 2809 2803 2799 2794 2790 2784 2780 2777 2775 2773 2772 2771 2770 2769 2768 2768 2768 2767 2767 2767 2767 2766 2766 2765 2765 2765 2765 2765 2765 2764 2763
3095 3094 3092 3089 3086 3082 3079 3077 3073 3067 3062 3058 3053 3048 3042 3035 3028 3022 3017 3012 3007 3002 2997 2991 2985 2980 2975 2970 2964 2958 2952 2947 2942 2936 2931 2925 2919 2914 2908 2901 2895 2889 2882 2875 2868 2862 2855 2849 2843 2837 2831 2826 2821 2816 2811 2807 2801 2796 2791 2787 2782 2777 2774 2773 2771 2770 2769 2768 2768 2767 2767 2766 2766 2766 2766 2766 2765 2764 2764 2763 2763 2763 2763 2763 2762 2761
3094 3092 3090 3087 3084 3080 3075 3073 3070 3064 3059 3055 3050 3044 3038 3031 3025 3020 3015 3010 3005 3000 2994 2989 2983 2978 2973 2968 2961 2955 2949 2944 2938 2932 2927 2921 2915 2909 2903 2896 2890 2884 2877 2871 2864 2858 2851 2844 2838 2832 2827 2821 2817 2812 2808 2804 2799 2794 2789 2785 2780 2775 2772 2771 2769 2769 2768 2767 2767 2766 2766 2765 2765 2765 2765 2765 2764 2763 2763 2762 2762 2762 2762 2761 2760 2759
3093 3090 3087 3085 3082 3079 3074 3070 3066 3061 3057 3054 3048 3040 3034 3028 3022 3018 3013 3008 3003 2997 2991 2986 2982 2976 2970 2964 2958 2952 2946 2941 2935 2928 2921 2916 2910 2904 2898 2891 2885 2879 2873 2866 2860 2854 2847 2841 2834 2828 2823 2817 2813 2808 2804 2800 2796 2791 2786 2782 2778 2773 2770 2769 2768 2767 2767 2766 2766 2765 2765 2764 2764 2764 2764 2763 2763 2763 2763 2762 2761 2761 2761 2760 2759 2757
3093 3090 3087 3083 3079 3076 3072 3068 3061 3054 3050 3049 3045 3038 3031 3025 3019 3014 3010 3005 2999 2993 2988 2983 2979 2974 2967 2961 2955 2949 2942 2937 2931 2925 2917 2911 2905 2900 2894 2887 2881 2874 2868 2862 2856 2850 2843 2837 2831 2825 2820 2814 2809 2805 2801 2797 2793 2788 2784 2779 2775 2771 2768 2766 2766 2766 2765 2765 2765 2764 2764 2764 2763 2763 2763 2763 2762 2762 2762 2761 2761 2760 2760 2759 2758 2756
3092 3089 3086 3081 3077 3073 3069 3065 3058 3050 3043 3041 3038 3033 3027 3022 3016 3010 3006 3000 2995 2989 2984 2978 2973 2969 2964 2958 2952 2945 2938 2932 2927 2921 2914 2908 2902 2897 2890 2883 2876 2870 2864 2857 2851 2845 2839 2833 2827 2822 2816 2812 2807 2802 2798 2794 2790 2786 2781 2777 2772 2768 2765 2764 2764 2764 2764 2764 2763 2763 2763 2762 2762 2762 2762 2762 2762 2761 2761 2761 2760 2760 2759 2758 2757 2755
3092 3088 3085 3080 3075 3071 3067 3063 3058 3051 3043 3038 3034 3029 3024 3019 3013 3007 3002 2997 2992 2987 2981 2974 2969 2964 2959 2954 2949 2943 2936 2930 2924 2918 2911 2905 2899 2893 2887 2880 2873 2865 2859 2852 2846 2840 2835 2829 2824 2818 2813 2808 2804 2799 2795 2791 2787 2783 2779 2774 2769 2766 2763 2761 2761 2762 2762 2762 2762 2762 2761 2761 2761 2761 2761 2761 2761 2760 2760 2760 2760 2759 2758 2757 2756 2755